Flag for Mongolia Weather past 2 weeks in Ulaanbaatar, Mongolia

Now
66 °F

Thunderstorms. Passing clouds.


Feels Like: 66 °F
Forecast: 57 / 80 °F
Wind: 6 mph from Southwest

Location: Ulan-Bator

Current Time: Jul 26, 2014 at 12:59:09 AM

Latest Report: Jul 26, 2014 at 12:30 AM


Visibility: N/A

Pressure: 29.89 "Hg

Humidity: 73%

Dew point: 57 °F

Location of UlaanbaatarLocation

Historic Weather in Ulaanbaatar — Graph

°F

Ulaanbaatar temperature yesterday

Maximum temperature yesterday: 90 °F (at 4:30 PM)
Minimum temperature yesterday: 55 °F (at 3:00 AM)
Average temperature yesterday: 73 °F

Past Weeks' High & Low Weather Summary

 TemperatureHumidityPressure
High90 °F (Jul 25, 4:30 PM)100% (Jul 20, 2:00 AM)30.09 "Hg (Jul 20, 2:00 AM)
Low43 °F (Jul 21, 3:30 AM)23% (Jul 23, 6:00 PM)29.62 "Hg (Jul 17, 3:30 PM)
Average63 °F65%29.86 "Hg
* Reported Midnight between Jul 10 and Jul 11 — Midnight between Jul 25 and Jul 26, Ulaanbaatar, Weather by CustomWeather, © 2014

Note: Actual official high and low records may vary slightly from our data, if they occured in-between our weather recording intervals... More about our weather records

Advertising

Ulaanbaatar weather history for previous 24 hours

 ConditionsComfort  
Time TempWeatherWind HumidityBarometerVisibility
12:00 AM
Jul 26
68 °FThunderstorms. Passing clouds.3 mph64%29.86 "HgN/A
11:30 PM
Jul 25
73 °FThunderstorms. Passing clouds.10 mph50%29.86 "HgN/A
11:00 PM73 °FThunderstorms. Passing clouds.1 mph50%29.80 "HgN/A
10:30 PM73 °FPassing clouds.1 mph53%29.80 "HgN/A
10:00 PM72 °FPassing clouds.1 mph61%29.80 "HgN/A
9:30 PM70 °FThunderstorms. Scattered clouds.3 mph64%29.77 "HgN/A
8:30 PM73 °FScattered clouds.6 mph57%29.77 "HgN/A
8:00 PM79 °FScattered clouds.No wind45%29.77 "HgN/A
7:30 PM81 °FPassing clouds.1 mph42%29.74 "HgN/A
7:00 PM82 °FPassing clouds.6 mph37%29.74 "HgN/A
6:30 PM86 °FPassing clouds.8 mph31%29.74 "HgN/A
6:00 PM86 °FPassing clouds.8 mph29%29.71 "HgN/A
5:30 PM86 °FScattered clouds.8 mph31%29.71 "HgN/A
5:00 PM88 °FPassing clouds.10 mph29%29.71 "HgN/A
4:30 PM90 °FScattered clouds.3 mph26%29.71 "HgN/A
4:00 PM88 °FScattered clouds.8 mph24%29.74 "HgN/A
3:30 PM88 °FScattered clouds.6 mph25%29.74 "HgN/A
3:00 PM88 °FPartly sunny.10 mph24%29.74 "HgN/A
2:30 PM88 °FPartly sunny.8 mph25%29.74 "HgN/A
2:00 PM88 °FPartly sunny.13 mph25%29.74 "HgN/A
1:30 PM86 °FPartly sunny.13 mph31%29.74 "HgN/A
1:00 PM84 °FPartly sunny.13 mph33%29.74 "HgN/A
12:30 PM84 °FPartly sunny.10 mph35%29.74 "HgN/A
12:00 PM84 °FPartly sunny.10 mph33%29.74 "HgN/A
11:30 AM82 °FPassing clouds.8 mph35%29.77 "HgN/A
11:00 AM81 °FPassing clouds.10 mph34%29.77 "HgN/A
10:30 AM79 °FSunny.10 mph39%29.77 "Hg10 mi
10:00 AM77 °FSunny.1 mph44%29.77 "Hg10 mi
9:30 AM73 °FSunny.1 mph50%29.77 "Hg10 mi
9:00 AM72 °FSunny.1 mph50%29.77 "Hg10 mi
8:30 AM66 °FSunny.1 mph64%29.77 "Hg10 mi
8:00 AM64 °FSunny.No wind68%29.77 "Hg10 mi
7:30 AM63 °FSunny.No wind73%29.77 "Hg10 mi
7:00 AM59 °FSunny.1 mph82%29.77 "Hg10 mi
6:30 AM55 °FSunny.No wind88%29.77 "Hg10 mi
6:00 AM55 °FClear.1 mph82%29.77 "Hg10 mi
5:30 AM55 °FClear.1 mph82%29.77 "Hg10 mi
5:00 AM55 °FClear.No wind82%29.74 "Hg10 mi
4:30 AM55 °FClear.1 mph88%29.77 "Hg10 mi
4:00 AM55 °FClear.3 mph82%29.77 "Hg10 mi
3:00 AM55 °FClear.No wind82%29.77 "Hg10 mi
2:00 AM59 °FClear.No wind77%29.77 "Hg10 mi
1:30 AM63 °FClear.1 mph68%29.77 "Hg10 mi
1:00 AM63 °FClear.1 mph73%29.77 "Hg10 mi
12:30 AM63 °FClear.1 mph73%29.77 "Hg10 mi
12:00 AM63 °FPassing clouds.1 mph73%29.77 "HgN/A
Weather by CustomWeather, © 2014

See weather overviewHow to use our weather pages